Home > Time Zones > World Clock > Weather > Japan > Naha > Past weeks

Flag for Japan Weather past 2 weeks in Naha, Okinawa, Japan

Now
61 °F

Passing clouds.


Feels Like: 61 °F
Forecast: 61 / 68 °F
Wind: 6 mph from Northeast

Location: Naha Airport

Current Time: Dec 27, 2014 at 2:14:04 AM

Latest Report: Dec 27, 2014 at 1:30 AM


Visibility: N/A

Pressure: 30.18 "Hg

Humidity: 63%

Dew point: 48 °F

Location of NahaLocation

Historic Weather in Naha — Graph

°F

Naha temperature yesterday

Maximum temperature yesterday: 66 °F (at 10:00 AM)
Minimum temperature yesterday: 61 °F (at 1:00 AM)
Average temperature yesterday: 63 °F

Past Weeks' High & Low Weather Summary

 TemperatureHumidityPressure
High73 °F (Dec 24, 11:30 AM)94% (Dec 20, 6:30 AM)30.36 "Hg (Dec 20, 6:30 AM)
Low55 °F (Dec 23, 12:30 AM)40% (Dec 14, 11:30 AM)29.95 "Hg (Dec 20, 5:30 AM)
Average63 °F60%30.19 "Hg
* Reported Dec 12 1:00 AM — Dec 27 1:00 AM, Naha, Weather by CustomWeather, © 2014

Note: Actual official high and low records may vary slightly from our data, if they occured in-between our weather recording intervals... More about our weather records

Advertising

Naha weather history for previous 24 hours

 ConditionsComfort  
Time TempWeatherWind HumidityBarometerVisibility
1:00 AM
Dec 27
61 °FPassing clouds.6 mph63%30.18 "HgN/A
12:30 AM63 °FPassing clouds.6 mph59%30.18 "HgN/A
12:00 AM63 °FPassing clouds.7 mph56%30.18 "HgN/A
11:30 PM
Dec 26
63 °FPassing clouds.8 mph56%30.18 "HgN/A
11:00 PM63 °FPassing clouds.7 mph56%30.21 "HgN/A
10:30 PM63 °FPartly cloudy.7 mph56%30.21 "HgN/A
10:00 PM63 °FPassing clouds.8 mph56%30.24 "HgN/A
9:30 PM63 °FPassing clouds.7 mph59%30.21 "HgN/A
9:00 PM63 °FPassing clouds.7 mph59%30.21 "HgN/A
8:30 PM63 °FPassing clouds.8 mph59%30.21 "HgN/A
8:00 PM63 °FPassing clouds.7 mph59%30.21 "HgN/A
7:30 PM63 °FPassing clouds.8 mph59%30.18 "HgN/A
7:00 PM63 °FPassing clouds.8 mph59%30.18 "HgN/A
6:30 PM63 °FPartly cloudy.8 mph59%30.18 "HgN/A
6:00 PM64 °FPartly cloudy.9 mph56%30.18 "HgN/A
5:30 PM63 °FBroken clouds.8 mph64%30.18 "HgN/A
5:00 PM64 °FPartly sunny.9 mph60%30.15 "HgN/A
4:30 PM64 °FPartly sunny.9 mph56%30.15 "HgN/A
4:00 PM64 °FPartly sunny.9 mph60%30.15 "HgN/A
3:30 PM64 °FPartly sunny.8 mph60%30.15 "HgN/A
3:00 PM64 °FPartly sunny.10 mph60%30.15 "HgN/A
2:30 PM66 °FBroken clouds.8 mph56%30.15 "HgN/A
2:00 PM66 °FPartly sunny.8 mph60%30.12 "HgN/A
1:30 PM66 °FBroken clouds.12 mph60%30.15 "HgN/A
1:00 PM66 °FPartly sunny.10 mph64%30.15 "HgN/A
12:30 PM64 °FPartly sunny.13 mph68%30.18 "HgN/A
11:30 AM66 °FScattered clouds.14 mph60%30.18 "HgN/A
11:00 AM66 °FScattered clouds.14 mph60%30.21 "HgN/A
10:30 AM66 °FScattered clouds.17 mph60%30.21 "HgN/A
10:00 AM66 °FScattered clouds.18 mph60%30.21 "HgN/A
9:30 AM64 °FScattered clouds.17 mph68%30.21 "HgN/A
9:00 AM64 °FScattered clouds.14 mph64%30.21 "HgN/A
8:30 AM63 °FBroken clouds.7 mph68%30.21 "HgN/A
8:00 AM63 °FPartly sunny.6 mph68%30.21 "HgN/A
7:30 AM61 °FLight rain. Partly sunny.6 mph72%30.18 "HgN/A
7:00 AM61 °FLight rain. Passing clouds.8 mph72%30.18 "HgN/A
6:30 AM63 °FLight rain. Passing clouds.7 mph64%30.18 "HgN/A
6:00 AM61 °FLight rain. Passing clouds.6 mph68%30.18 "HgN/A
5:30 AM61 °FLight rain. Passing clouds.7 mph68%30.15 "HgN/A
5:00 AM61 °FScattered showers. Partly cloudy.7 mph68%30.15 "HgN/A
4:30 AM61 °FLight rain. Passing clouds.9 mph68%30.15 "HgN/A
4:00 AM63 °FLight rain. Passing clouds.12 mph59%30.18 "HgN/A
3:30 AM61 °FPassing clouds.8 mph68%30.18 "HgN/A
3:00 AM61 °FSprinkles. Passing clouds.9 mph72%30.18 "HgN/A
2:30 AM61 °FSprinkles. Passing clouds.12 mph72%30.18 "HgN/A
2:00 AM61 °FSprinkles. Partly cloudy.8 mph72%30.18 "HgN/A
Weather by CustomWeather, © 2014

See weather overviewHow to use our weather pages